Inquirer Daily News

Weather

Get conditions and forecasts for any City, State, ZIP code or Country:  
Northeast Philadelphia, PA
on Sunday, December 16, 2012

Sunday
Previous Day Next Day
Daily Summary
 ActualAverage (KTTN)Record (KTTN)
Temperature
Mean Temperature °F 35°F  
Max Temperature 51°F 43°F 66°F (1971)
Min Temperature 41°F 27°F 9°F (1917)
Degree Days
Heating Degree Days 19 30  
Month to date heating degree days 439  
Since 1 July heating degree days 1415  
Cooling Degree Days 0 0  
Month to date cooling degree days 0  
Year to date cooling degree days 965  
Moisture
Dew Point 43°F   
Average Humidity 89    
Maximum Humidity 100    
Minimum Humidity 76    
Precipitation
Precipitation 0.08 in 0.12 in 2.42 in (1974)
Month to date precipitation 2.17  
Year to date precipitation 44.91  
Wind
Wind Speed 4 mph   
Max Wind Speed 9 mph   
Max Gust Speed mph   
Visibility 7 miles   
Events Rain   

Key: T is trace of precipitation, MM is missing value
Source: NWS Daily Summary
Time(EST)TemperatureDew PointHumidity Pressure Visibility Wind DirectionWind SpeedGust SpeedPrecipitationEvents Conditions
12:54 AM 41.0°F 36.0°F 82% 30.20 in 10.0 miles NNE 3.5 mph - N/A   Overcast
1:30 AM 41.0°F 35.6°F 81% 30.18 in 10.0 miles ENE 5.8 mph - N/A   Overcast
1:54 AM 42.1°F 37.0°F 82% 30.18 in 10.0 miles ENE 5.8 mph - N/A   Overcast
2:08 AM 42.8°F 37.4°F 81% 30.18 in 10.0 miles East 3.5 mph - N/A   Overcast
2:28 AM 42.8°F 37.4°F 81% 30.17 in 10.0 miles ENE 3.5 mph - N/A   Overcast
2:54 AM 44.1°F 37.0°F 76% 30.15 in 10.0 miles ENE 5.8 mph - N/A   Overcast
3:54 AM 44.1°F 37.9°F 79% 30.13 in 10.0 miles East 5.8 mph - N/A   Overcast
4:35 AM 42.8°F 39.2°F 87% 30.12 in 10.0 miles ENE 4.6 mph - 0.00 in Rain Light Rain
4:54 AM 43.0°F 39.0°F 86% 30.12 in 10.0 miles ENE 6.9 mph - 0.00 in   Overcast
5:54 AM 43.0°F 39.9°F 89% 30.11 in 10.0 miles NE 3.5 mph - N/A   Overcast
6:54 AM 44.1°F 41.0°F 89% 30.10 in 9.0 miles NE 4.6 mph - N/A   Overcast
7:54 AM 44.6°F 42.8°F 93% 30.09 in 9.0 miles NE 3.5 mph - N/A   Overcast
8:06 AM 46.4°F 42.8°F 87% 30.08 in 10.0 miles Calm Calm - N/A   Overcast
8:30 AM 46.4°F 42.8°F 87% 30.08 in 9.0 miles Calm Calm - N/A   Overcast
8:54 AM 46.9°F 43.0°F 86% 30.07 in 10.0 miles NE 4.6 mph - N/A   Overcast
9:54 AM 48.9°F 45.0°F 86% 30.07 in 10.0 miles SE 5.8 mph - N/A   Overcast
10:49 AM 50.0°F 44.6°F 82% 30.05 in 10.0 miles Calm Calm - N/A   Overcast
10:54 AM 50.0°F 46.0°F 86% 30.05 in 10.0 miles SSE 3.5 mph - N/A   Overcast
11:52 AM 51.8°F 44.6°F 76% 30.01 in 10.0 miles Calm Calm - N/A   Overcast
11:54 AM 51.1°F 44.1°F 77% 30.01 in 10.0 miles Calm Calm - N/A   Overcast
12:29 PM 51.8°F 44.6°F 76% 30.00 in 10.0 miles East 3.5 mph - N/A   Overcast
12:54 PM 51.1°F 45.0°F 80% 29.99 in 10.0 miles SE 3.5 mph - N/A   Overcast
1:54 PM 50.0°F 46.0°F 86% 29.98 in 6.0 miles East 3.5 mph - N/A   Overcast
2:28 PM 48.2°F 46.4°F 93% 29.97 in 1.8 miles Calm Calm - 0.00 in Rain Light Rain
2:37 PM 48.2°F 48.2°F 100% 29.96 in 1.2 miles East 4.6 mph - 0.01 in Rain Light Rain
2:54 PM 48.9°F 48.0°F 97% 29.97 in 1.5 miles Calm Calm - 0.01 in   Overcast
3:08 PM 48.2°F 48.2°F 100% 29.96 in 1.8 miles East 3.5 mph - N/A   Overcast
3:22 PM 48.2°F 48.2°F 100% 29.95 in 2.0 miles East 6.9 mph - N/A   Overcast
3:54 PM 48.9°F 48.0°F 97% 29.95 in 2.0 miles ENE 8.1 mph - N/A   Overcast
4:54 PM 48.9°F 48.0°F 97% 29.94 in 2.0 miles ENE 4.6 mph - N/A   Overcast
5:54 PM 48.9°F 48.0°F 97% 29.94 in 2.0 miles NE 8.1 mph - N/A   Overcast
6:54 PM 48.0°F 46.9°F 96% 29.93 in 2.0 miles NE 8.1 mph - N/A   Overcast
7:54 PM 46.9°F 46.0°F 97% 29.93 in 2.5 miles ENE 9.2 mph - 0.01 in   Overcast
8:01 PM 46.4°F 46.4°F 100% 29.92 in 4.0 miles NE 9.2 mph - N/A   Overcast
8:54 PM 46.9°F 45.0°F 93% 29.92 in 8.0 miles ENE 9.2 mph - 0.00 in Rain Light Rain
9:54 PM 46.0°F 45.0°F 96% 29.92 in 5.0 miles NE 8.1 mph - 0.02 in Rain Light Rain
10:54 PM 46.0°F 44.1°F 93% 29.92 in 6.0 miles NE 8.1 mph - 0.02 in Rain Light Rain
11:54 PM 45.0°F 44.1°F 97% 29.90 in 9.0 miles East 6.9 mph - 0.02 in Rain Light Rain
Astronomy
Sunrise:07:15 AM (EST) Moon Rise:09:47 AM (EST)12/16
Sunset:04:35 PM (EST) Moon Set:08:47 PM (EST)12/16
Moon Phase
Dec. 16 Dec. 20 Dec. 28 Jan. 04 Jan. 11

Copyright © 2014 The Weather Underground, Inc.